TimeEST,TemperatureF,Dew PointF,Humidity,Sea Level PressureIn,VisibilityMPH,Wind Direction,Wind SpeedMPH,Gust SpeedMPH,PrecipitationIn,Events,Conditions,WindDirDegrees,DateUTC
12:52 AM,28.0,23.0,81,30.18,10.0,Calm,Calm,-,N/A,,Clear,0,2012-11-21 05:52:00
1:52 AM,27.0,23.0,85,30.19,10.0,Calm,Calm,-,N/A,,Clear,0,2012-11-21 06:52:00
2:52 AM,27.0,23.0,85,30.19,10.0,Calm,Calm,-,N/A,,Clear,0,2012-11-21 07:52:00
3:52 AM,26.1,21.9,84,30.20,10.0,Calm,Calm,-,N/A,,Clear,0,2012-11-21 08:52:00
4:52 AM,26.1,21.9,84,30.22,10.0,Calm,Calm,-,N/A,,Clear,0,2012-11-21 09:52:00
5:52 AM,26.1,21.9,84,30.23,10.0,Calm,Calm,-,N/A,,Clear,0,2012-11-21 10:52:00
6:52 AM,26.1,21.9,84,30.25,10.0,Calm,Calm,-,N/A,,Clear,0,2012-11-21 11:52:00
7:52 AM,28.0,24.1,85,30.27,10.0,Calm,Calm,-,N/A,,Clear,0,2012-11-21 12:52:00
8:52 AM,32.0,25.0,75,30.28,10.0,Calm,Calm,-,N/A,,Clear,0,2012-11-21 13:52:00
9:52 AM,37.0,26.1,65,30.28,10.0,Calm,Calm,-,N/A,,Clear,0,2012-11-21 14:52:00
11:52 AM,50.0,19.9,31,30.22,10.0,East,4.6,-,N/A,,Clear,80,2012-11-21 16:52:00
1:52 PM,52.0,21.0,30,30.19,10.0,SE,8.1,-,N/A,,Clear,140,2012-11-21 18:52:00
2:52 PM,52.0,19.9,28,30.20,10.0,SSE,4.6,-,N/A,,Clear,160,2012-11-21 19:52:00
3:52 PM,44.1,25.0,47,30.20,10.0,Calm,Calm,-,N/A,,Clear,0,2012-11-21 20:52:00
4:52 PM,37.0,24.1,59,30.23,10.0,Calm,Calm,-,N/A,,Clear,0,2012-11-21 21:52:00
5:52 PM,32.0,24.1,73,30.25,10.0,Calm,Calm,-,N/A,,Clear,0,2012-11-21 22:52:00
6:52 PM,30.0,24.1,79,30.27,10.0,Calm,Calm,-,N/A,,Clear,0,2012-11-21 23:52:00
7:52 PM,30.0,23.0,75,30.28,10.0,Calm,Calm,-,N/A,,Clear,0,2012-11-22 00:52:00
8:52 PM,28.0,23.0,81,30.29,10.0,Calm,Calm,-,N/A,,Clear,0,2012-11-22 01:52:00
9:52 PM,27.0,21.0,78,30.29,10.0,Calm,Calm,-,N/A,,Clear,0,2012-11-22 02:52:00
10:52 PM,27.0,21.9,81,30.28,10.0,Calm,Calm,-,N/A,,Clear,0,2012-11-22 03:52:00
11:52 PM,28.0,21.9,78,30.28,10.0,Calm,Calm,-,N/A,,Clear,0,2012-11-22 04:52:00